[[{"header":{"parameterUnit":"m.s-1","parameterCategory":1,"la1":30.2991,"la2":30.254,"lo1":-89.0895,"lo2":-89.0444,"dy":0.0017,"dx":0.0017,"nx":28,"ny":28,"refTime":"2024-12-09T09:00:00:Z","depth":0,"parameterNumber":2,"parameterNumberName":"U-component_of_WINDS"},"data":[0,0,0,0,0,0,0,0,0,0,0,0,0,0,0,0,0,0,0,0,0,0,0,0,0,0,0,0,0,0,0,0,0,0,0,0,0,0,0,0,0,0,0,0,0,0,0,0,0,0,0,0,0,0,0,0,0,0,-0.162,-0.162,0,-0.1678,-0.1679,-0.1679,-0.1722,-0.1723,-0.1723,-0.1724,-0.1784,-0.1785,-0.1787,0,0,0,0,0,0,0,0,0,0,0,0,0,-0.1545,-0.1547,-0.162,-0.162,-0.1621,-0.1678,-0.1679,-0.168,-0.1722,-0.1723,-0.1723,-0.1724,-0.1784,-0.1785,-0.1787,0,0,0,0,0,0,0,0,0,0,0,0,0,-0.1588,-0.1547,-0.162,-0.1649,-0.1653,-0.1678,-0.1679,-0.168,-0.1722,-0.1723,-0.1723,-0.1724,-0.1783,-0.1785,-0.1787,-0.1788,0,0,-0.1793,-0.1794,0,0,0,0,0,0,0,0,-0.1586,-0.1591,-0.1644,-0.1647,-0.1651,-0.1694,-0.1675,-0.1716,-0.1722,-0.1696,-0.1724,-0.1724,-0.1754,-0.1758,-0.1768,-0.179,-0.1793,-0.1793,-0.1794,-0.1795,-0.1795,0,0,0,0,0,0,0,-0.1583,-0.1589,-0.1643,-0.1645,-0.1649,-0.166,-0.1667,-0.1683,-0.1721,-0.1698,-0.1701,-0.1708,-0.1756,-0.1766,-0.1769,-0.1794,-0.1793,-0.1794,-0.1796,-0.1796,-0.1819,-0.1819,0,0,0,0,0,0,-0.1575,-0.1586,-0.1641,-0.1645,-0.1619,-0.1661,-0.1668,-0.1679,-0.1721,-0.1728,-0.1707,-0.1709,-0.1762,-0.1767,-0.1772,-0.1774,-0.1795,-0.1797,-0.1798,-0.182,-0.1819,-0.1818,0,0,0,0,0,0,-0.1573,-0.1579,-0.1639,-0.1616,-0.1624,-0.1661,-0.1674,-0.168,-0.169,-0.1728,-0.1735,-0.1711,-0.1763,-0.1769,-0.1783,-0.1777,-0.1797,-0.1799,-0.182,-0.1819,-0.1819,-0.178,0,0,0,0,0,0,-0.1571,-0.1579,-0.1579,-0.1616,-0.1625,-0.1649,-0.1673,-0.1681,-0.1694,-0.1697,-0.1733,-0.1739,-0.1764,-0.178,-0.1785,-0.178,-0.1801,-0.1821,-0.182,-0.1819,-0.1782,-0.1778,-0.1775,0,0,0,0,0,-0.1568,-0.1566,-0.1579,-0.1585,-0.1627,-0.1648,-0.1654,-0.1682,-0.1693,-0.1694,-0.1717,-0.1738,-0.1777,-0.1781,-0.1787,-0.1783,-0.1821,-0.182,-0.1819,-0.1784,-0.1779,-0.1775,0,0,0,0,0,0,-0.1529,-0.1572,-0.1586,-0.1596,-0.1618,-0.1656,-0.1658,-0.1676,-0.1696,-0.1698,-0.1733,-0.174,-0.175,-0.1768,-0.1772,-0.1785,-0.1802,-0.1802,-0.1773,-0.1769,-0.1765,-0.176,-0.1802,0,0,0,0,0,-0.1521,-0.1535,-0.1572,-0.1577,-0.1587,-0.162,-0.1631,-0.165,-0.1675,-0.1684,-0.1709,-0.1732,-0.1749,-0.176,-0.1778,-0.1785,-0.1793,-0.1785,-0.1781,-0.1778,-0.1777,-0.1781,-0.1778,-0.1814,-0.1814,-0.1814,0,0,-0.1506,-0.1531,-0.1538,-0.157,-0.1589,-0.1602,-0.1628,-0.1641,-0.1651,-0.1686,-0.1701,-0.172,-0.1748,-0.1757,-0.1763,-0.1772,-0.1769,-0.1776,-0.1774,-0.1775,-0.1779,-0.1776,-0.1773,-0.1814,-0.1814,-0.1814,0,0,-0.1484,-0.1505,-0.1511,-0.153,-0.1558,-0.158,-0.1581,-0.1616,-0.163,-0.1644,-0.1671,-0.1684,-0.1713,-0.1731,-0.1745,-0.1729,-0.1748,-0.1734,-0.1714,-0.1718,-0.1715,-0.1712,-0.1706,-0.1703,-0.1733,-0.1733,-0.1733,0,-0.1462,-0.1482,-0.1512,-0.1523,-0.1536,-0.1568,-0.1574,-0.1591,-0.1624,-0.1633,-0.1643,-0.168,-0.1701,-0.1715,-0.1711,-0.1721,-0.1723,-0.173,-0.1713,-0.1711,-0.1709,-0.1703,-0.17,-0.1731,-0.1732,-0.1732,-0.1732,0,-0.1452,-0.1466,-0.1468,-0.1498,-0.1511,-0.152,-0.1551,-0.1561,-0.1579,-0.16,-0.1614,-0.1641,-0.1664,-0.1669,-0.1688,-0.1686,-0.1691,-0.1706,-0.1724,-0.1703,-0.1698,-0.1696,-0.1728,-0.1729,-0.173,-0.173,0,0,-0.1408,-0.1454,-0.1454,-0.1467,-0.1501,-0.1512,-0.1522,-0.1544,-0.1552,-0.1574,-0.1582,-0.1606,-0.1621,-0.1636,-0.1656,-0.1659,-0.1644,-0.1675,-0.1676,-0.1667,-0.1642,-0.1629,-0.1626,-0.1657,-0.1657,-0.1657,-0.164,0,-0.139,-0.1409,-0.1436,-0.1446,-0.1458,-0.1489,-0.1497,-0.1519,-0.1538,-0.1552,-0.1574,-0.159,-0.1608,-0.1617,-0.1622,-0.1645,-0.1639,-0.1647,-0.1665,-0.1665,-0.1656,-0.1624,-0.1611,-0.1593,-0.1638,-0.1638,-0.1637,0,-0.1373,-0.1392,-0.1403,-0.1434,-0.144,-0.1448,-0.147,-0.1483,-0.1507,-0.1521,-0.1537,-0.156,-0.1572,-0.1588,-0.1604,-0.1608,-0.1618,-0.163,-0.163,-0.1632,-0.1649,-0.1624,-0.1588,-0.1585,-0.1635,-0.1635,-0.1635,0,-0.1338,-0.1366,-0.1376,-0.1387,-0.1424,-0.1428,-0.1444,-0.147,-0.1481,-0.1501,-0.1508,-0.1529,-0.154,-0.1556,-0.1583,-0.1593,-0.1596,-0.1615,-0.1608,-0.1607,-0.1606,-0.1606,-0.157,-0.1614,-0.1614,-0.1614,-0.1614,0,-0.1315,-0.132,-0.136,-0.1366,-0.1373,-0.1404,-0.1409,-0.1428,-0.145,-0.146,-0.1488,-0.1497,-0.1533,-0.1546,-0.1568,-0.1577,-0.1583,-0.1594,-0.16,-0.1591,-0.1589,-0.1597,-0.1598,-0.1614,-0.1614,-0.1614,-0.1614,0,-0.1277,-0.1304,-0.1316,-0.135,-0.1359,-0.1362,-0.1391,-0.1398,-0.1419,-0.1431,-0.1436,-0.1469,-0.1486,-0.1515,-0.154,-0.1555,-0.1559,-0.157,-0.1551,-0.1554,-0.1544,-0.1544,-0.1512,-0.1508,-0.1555,-0.1554,-0.1554,0,-0.126,-0.1264,-0.1298,-0.1307,-0.1321,-0.1334,-0.1346,-0.1376,-0.1387,-0.1415,-0.1418,-0.1437,-0.1454,-0.1479,-0.1506,-0.1525,-0.1535,-0.1522,-0.1538,-0.1529,-0.1533,-0.1532,-0.1532,-0.1518,-0.1517,-0.1517,-0.1517,0,-0.1227,-0.124,-0.1255,-0.1274,-0.1287,-0.1304,-0.1323,-0.1328,-0.1363,-0.1374,-0.1391,-0.1403,-0.1429,-0.1447,-0.1469,-0.1486,-0.1507,-0.1511,-0.151,-0.1501,-0.1489,-0.1494,-0.1539,-0.1512,-0.1512,-0.1513,-0.1513,-0.1513,-0.1198,-0.1203,-0.1227,-0.1243,-0.126,-0.1276,-0.1284,-0.1305,-0.132,-0.1342,-0.1359,-0.1375,-0.1399,-0.1432,-0.1447,-0.146,-0.1469,-0.1468,-0.1468,-0.1467,-0.1463,-0.1488,-0.1464,-0.1464,-0.1465,-0.1465,-0.1465,0,-0.1166,-0.1182,-0.1196,-0.1221,-0.1233,-0.1251,-0.1272,-0.1281,-0.1294,-0.1315,-0.133,-0.1349,-0.1366,-0.1394,-0.1413,-0.1418,-0.1428,-0.1422,-0.1422,-0.1425,-0.1454,-0.1452,-0.1414,-0.1414,-0.1414,-0.1414,-0.1414,-0.1414,-0.115,-0.1158,-0.1174,-0.1191,-0.1208,-0.1223,-0.1233,-0.1248,-0.1265,-0.1284,-0.1299,-0.1316,-0.134,-0.1361,-0.1378,-0.1385,-0.1391,-0.1381,-0.1392,-0.1418,-0.1423,-0.1427,-0.1426,-0.1383,-0.1383,-0.1362,-0.1362,-0.1361]},{"header":{"parameterUnit":"m.s-1","parameterCategory":1,"la1":30.2991,"la2":30.254,"lo1":-89.0895,"lo2":-89.0444,"dy":0.0017,"dx":0.0017,"nx":28,"ny":28,"refTime":"2024-12-09T09:00:00:Z","depth":0,"parameterNumber":3,"parameterNumberName":"V-component_of_WINDS"},"data":[0,0,0,0,0,0,0,0,0,0,0,0,0,0,0,0,0,0,0,0,0,0,0,0,0,0,0,0,0,0,0,0,0,0,0,0,0,0,0,0,0,0,0,0,0,0,0,0,0,0,0,0,0,0,0,0,0,0,3.2568,3.2568,0,3.264,3.264,3.2641,3.2649,3.2648,3.2647,3.2647,3.272,3.2723,3.2725,0,0,0,0,0,0,0,0,0,0,0,0,0,3.2437,3.2439,3.2568,3.2568,3.2569,3.2639,3.264,3.2641,3.2649,3.2648,3.2647,3.2646,3.2719,3.2722,3.2725,0,0,0,0,0,0,0,0,0,0,0,0,0,3.2499,3.244,3.2567,3.2582,3.2584,3.2639,3.2641,3.2642,3.2649,3.2648,3.2647,3.2646,3.2718,3.2722,3.2726,3.2772,0,0,3.2738,3.274,0,0,0,0,0,0,0,0,3.2496,3.2504,3.2579,3.2581,3.2583,3.2634,3.2621,3.2685,3.265,3.2624,3.2647,3.2645,3.2692,3.2698,3.2714,3.2776,3.2779,3.2738,3.2741,3.2742,3.2744,0,0,0,0,0,0,0,3.2492,3.2501,3.2596,3.258,3.2582,3.2584,3.2592,3.2633,3.2664,3.2626,3.2627,3.2636,3.2693,3.271,3.2716,3.278,3.2738,3.2742,3.2744,3.2746,3.2884,3.2885,0,0,0,0,0,0,3.2485,3.2498,3.2594,3.2598,3.2536,3.2588,3.2596,3.2619,3.2663,3.2669,3.2636,3.2636,3.2704,3.2711,3.2719,3.2777,3.2742,3.2746,3.2748,3.2882,3.2884,3.2885,0,0,0,0,0,0,3.2482,3.2493,3.2591,3.2548,3.2561,3.2591,3.2616,3.2621,3.2638,3.2671,3.2676,3.2648,3.2704,3.2713,3.2759,3.2779,3.2748,3.2751,3.2881,3.2883,3.2885,3.2893,0,0,0,0,0,0,3.2478,3.2492,3.251,3.2548,3.2563,3.263,3.2618,3.2623,3.2645,3.2645,3.2683,3.2689,3.2703,3.2753,3.2763,3.2784,3.2755,3.2879,3.2882,3.2884,3.2891,3.2895,3.2898,0,0,0,0,0,3.2473,3.2509,3.2511,3.2522,3.2586,3.2631,3.264,3.2656,3.2646,3.2665,3.2686,3.2688,3.2775,3.2758,3.2769,3.2792,3.2878,3.2881,3.2884,3.2889,3.2894,3.2898,0,0,0,0,0,0,3.2472,3.2514,3.2517,3.2566,3.2595,3.2633,3.2657,3.266,3.2693,3.2691,3.271,3.2718,3.2764,3.2782,3.2762,3.2839,3.2826,3.2831,3.2826,3.2831,3.2834,3.283,3.2758,0,0,0,0,0,3.2478,3.2511,3.2546,3.2586,3.2601,3.2626,3.2646,3.2656,3.2687,3.2699,3.2724,3.2753,3.2788,3.281,3.2843,3.2893,3.2902,3.2914,3.2918,3.292,3.2925,3.2954,3.296,3.2895,3.2895,3.2895,0,0,3.249,3.2517,3.2537,3.2587,3.2611,3.2645,3.2636,3.2673,3.2699,3.2705,3.275,3.2769,3.2803,3.2852,3.2874,3.2868,3.2945,3.2924,3.2926,3.293,3.2957,3.2963,3.2969,3.2897,3.2897,3.2896,0,0,3.2529,3.2553,3.2589,3.2613,3.2649,3.2666,3.2674,3.2711,3.2724,3.277,3.2775,3.2806,3.2864,3.2889,3.2909,3.2957,3.296,3.2967,3.2987,3.3015,3.302,3.3024,3.3043,3.3049,3.2972,3.2972,3.2972,0,3.254,3.2592,3.2608,3.2644,3.2667,3.2674,3.2711,3.2733,3.2778,3.2793,3.2786,3.286,3.2883,3.2938,3.295,3.2965,3.2976,3.2964,3.3018,3.3022,3.3027,3.3045,3.3052,3.2973,3.2973,3.2972,3.2972,0,3.2603,3.2639,3.2664,3.2708,3.2733,3.2769,3.2791,3.2814,3.2822,3.2839,3.2886,3.2914,3.2953,3.2967,3.2974,3.3023,3.3018,3.3014,3.3001,3.3034,3.3051,3.3058,3.2974,3.2973,3.2973,3.2973,0,0,3.2645,3.2697,3.2706,3.2726,3.2766,3.2794,3.2831,3.287,3.289,3.292,3.2952,3.3002,3.2998,3.3021,3.3031,3.3055,3.3093,3.3048,3.3049,3.3056,3.3149,3.3153,3.316,3.3094,3.3096,3.3097,3.3146,0,3.2691,3.2757,3.2773,3.283,3.2864,3.2871,3.2903,3.2931,3.2948,3.2979,3.2997,3.3033,3.3025,3.3039,3.3062,3.3083,3.3112,3.308,3.3125,3.3126,3.3118,3.3169,3.3173,3.3219,3.3153,3.3154,3.3155,0,3.2753,3.2785,3.2846,3.2882,3.2896,3.2925,3.2962,3.2992,3.3023,3.3034,3.3059,3.3067,3.3106,3.309,3.3144,3.3122,3.3141,3.3154,3.3156,3.3162,3.3144,3.3178,3.3234,3.3241,3.3165,3.3164,3.3164,0,3.2779,3.2837,3.2882,3.2899,3.2941,3.2961,3.298,3.3011,3.3033,3.3065,3.308,3.3116,3.3136,3.3163,3.318,3.3167,3.3233,3.3219,3.3244,3.3244,3.3259,3.3258,3.332,3.3269,3.3269,3.3268,3.3268,0,3.2829,3.2866,3.2894,3.2922,3.2964,3.2981,3.3022,3.304,3.3067,3.3099,3.3106,3.3135,3.3155,3.3187,3.32,3.3243,3.3252,3.3262,3.3265,3.3262,3.3261,3.3276,3.3274,3.327,3.327,3.3269,3.3269,0,3.2867,3.2887,3.2936,3.2972,3.2982,3.3011,3.3042,3.3069,3.3085,3.3125,3.3135,3.3161,3.3199,3.3218,3.3265,3.3274,3.3323,3.3324,3.3313,3.3315,3.3339,3.3337,3.3415,3.3426,3.3366,3.3366,3.3367,0,3.2898,3.2927,3.2966,3.2988,3.3007,3.3041,3.3064,3.3082,3.3105,3.3144,3.3166,3.3204,3.3236,3.3295,3.3319,3.3355,3.3357,3.3382,3.3363,3.3359,3.3359,3.3358,3.3361,3.3386,3.3386,3.3387,3.3387,0,3.2952,3.296,3.2994,3.303,3.3058,3.3087,3.3116,3.3133,3.3155,3.3181,3.322,3.3245,3.3293,3.3331,3.3368,3.3387,3.3391,3.3392,3.3401,3.3399,3.3391,3.3397,3.3324,3.3391,3.3391,3.339,3.339,3.339,3.2989,3.3015,3.3047,3.3084,3.3107,3.3134,3.3162,3.3182,3.3214,3.3255,3.3263,3.3304,3.3335,3.3386,3.3406,3.3438,3.3433,3.3445,3.3448,3.3451,3.3453,3.3385,3.3445,3.3445,3.3445,3.3445,3.3445,0,3.3044,3.3065,3.3098,3.3139,3.3168,3.3169,3.3201,3.3225,3.3261,3.329,3.3321,3.3366,3.3402,3.3428,3.3465,3.3486,3.3489,3.3496,3.3495,3.35,3.3454,3.3444,3.3493,3.3493,3.3493,3.3493,3.3493,3.3493,3.3077,3.3122,3.3134,3.3191,3.3211,3.3252,3.3271,3.3296,3.3318,3.3368,3.3399,3.3415,3.3443,3.3482,3.3516,3.3522,3.3536,3.3543,3.355,3.3508,3.3503,3.3498,3.3489,3.3546,3.3546,3.3593,3.3593,3.3593]}]]